GW0809 Weather Reports


time (UTC)temp
F
wind
direction
speed
knots
gust
knots
rain 1hr
in
rain 24hr
in
rain mn
in
humidity
%
barometer
mb
20260504151055 61 0 0.0 1.7 0.00 0.00 0.00 72 1009.7
20260504150600 60 0 0.0 1.7 0.00 0.00 0.00 72 1009.7
20260504150105 58 142 0.0 0.9 0.00 0.00 0.00 76 1009.7
20260504141054 52 0 0.0 0.9 0.00 0.00 0.00 91 1009.4
20260504140555 52 5 0.0 0.9 0.00 0.00 0.00 92 1009.4
20260504130559 49 0 0.0 1.7 0.00 0.00 0.00 91 1008.7
20260504110554 52 0 0.0 0.0 0.00 0.00 0.00 88 1008.8
20260504100554 53 0 0.0 0.9 0.00 0.00 0.00 86 1008.7
20260504081555 55 0 0.0 0.0 0.00 0.00 0.00 85 1008.6
20260504081054 55 0 0.0 0.0 0.00 0.00 0.00 84 1008.7
20260504080554 55 0 0.0 0.0 0.00 0.00 0.00 84 1008.5
20260504070106 58 0 0.0 0.0 0.00 0.00 0.00 83 1008.4
20260504050555 62 0 0.0 0.0 0.00 0.00 0.00 76 1008.5
20260504045553 63 0 0.0 0.0 0.00 0.00 0.00 75 1008.5
20260504045053 63 0 0.0 0.0 0.00 0.00 0.00 75 1008.6
20260504044557 63 0 0.0 0.0 0.00 0.00 0.00 74 1008.6
20260504044055 64 0 0.0 0.0 0.00 0.00 0.00 75 1008.6
20260504043554 64 0 0.0 0.0 0.00 0.00 0.00 74 1008.7
20260504043054 64 0 0.0 0.0 0.00 0.00 0.00 74 1008.7
20260504042555 64 0 0.0 0.0 0.00 0.00 0.00 74 1008.6
20260504042054 65 0 0.0 0.0 0.00 0.00 0.00 74 1008.6
20260504041554 65 0 0.0 0.9 0.00 0.00 0.00 74 1008.6
20260504041055 65 0 0.0 0.9 0.00 0.00 0.00 73 1008.6
20260504040557 65 0 0.0 0.9 0.00 0.00 0.00 72 1008.6
20260504040058 66 286 0.0 0.0 0.00 0.00 0.00 70 1008.5
20260504035554 66 0 0.0 0.0 0.00 0.00 0.00 68 1008.4
20260504035054 67 0 0.0 0.0 0.00 0.00 0.00 68 1008.3
20260504034609 67 0 0.0 0.0 0.00 0.00 0.00 67 1008.2
20260504034054 68 0 0.0 0.9 0.00 0.00 0.00 65 1008.3
20260504033554 68 0 0.0 0.9 0.00 0.00 0.00 63 1008.1
20260504033053 68 0 0.0 0.9 0.00 0.00 0.00 62 1008.3
20260504032555 68 0 0.0 0.9 0.00 0.00 0.00 62 1008.5
20260504032054 68 0 0.0 0.0 0.00 0.00 0.00 61 1008.5
20260504031552 69 0 0.0 0.0 0.00 0.00 0.00 61 1008.4
20260504031053 70 0 0.0 0.0 0.00 0.00 0.00 61 1008.5
20260504030553 70 0 0.0 0.0 0.00 0.00 0.00 59 1008.5
20260504030053 70 0 0.0 0.0 0.00 0.00 0.00 59 1008.6
20260504025553 71 0 0.0 0.0 0.00 0.00 0.00 57 1008.6
20260504025054 71 0 0.0 0.0 0.00 0.00 0.00 56 1008.5
20260504024553 72 0 0.0 0.0 0.00 0.00 0.00 55 1008.5
20260504024055 72 0 0.0 0.0 0.00 0.00 0.00 55 1008.4
20260504023555 73 0 0.0 0.0 0.00 0.00 0.00 55 1008.5
20260504023054 73 0 0.0 0.0 0.00 0.00 0.00 53 1008.4
20260504022555 74 0 0.0 0.9 0.00 0.00 0.00 54 1008.5
20260504022054 74 0 0.0 0.9 0.00 0.00 0.00 52 1008.3
20260504021554 74 286 0.0 0.9 0.00 0.00 0.00 50 1008.6
20260504021056 75 0 0.0 0.9 0.00 0.00 0.00 47 1008.5
20260504020554 75 0 0.0 0.9 0.00 0.00 0.00 48 1008.5
20260504020053 76 0 0.0 0.9 0.00 0.00 0.00 49 1008.6
20260504015555 76 0 0.0 0.9 0.00 0.00 0.00 47 1008.7
20260504015054 77 0 0.0 0.9 0.00 0.00 0.00 44 1008.8
20260504014603 77 0 0.0 0.9 0.00 0.00 0.00 42 1008.8
20260504014053 77 0 0.0 0.9 0.00 0.00 0.00 40 1008.9
20260504013557 78 0 0.0 1.7 0.00 0.00 0.00 40 1008.9
20260504013054 78 0 0.0 1.7 0.00 0.00 0.00 40 1008.8
20260504012557 78 182 0.0 1.7 0.00 0.00 0.00 38 1008.8
20260504012054 79 0 0.0 1.7 0.00 0.00 0.00 37 1008.9
20260504011559 79 0 0.0 1.7 0.00 0.00 0.00 37 1009.0
20260504011054 80 0 0.0 2.6 0.00 0.00 0.00 34 1009.0
20260504010554 80 109 0.0 2.6 0.00 0.00 0.00 36 1009.0
20260504010059 81 239 0.0 1.7 0.00 0.00 0.00 35 1009.2
20260504005554 81 0 0.0 1.7 0.00 0.00 0.00 33 1009.2
20260504005054 82 0 0.0 1.7 0.00 0.00 0.00 33 1009.4
20260504004555 82 252 0.0 1.7 0.00 0.00 0.00 32 1009.4
20260504004054 83 212 0.0 2.6 0.00 0.00 0.00 36 1009.5
20260504003554 83 0 0.0 2.6 0.00 0.00 0.00 36 1009.5
20260504003059 83 0 0.0 2.6 0.00 0.00 0.00 36 1009.5
20260504002555 83 172 0.0 1.7 0.00 0.00 0.00 37 1009.6
20260504002054 83 163 0.9 5.2 0.00 0.00 0.00 37 1009.6
20260504001606 83 117 0.0 5.2 0.00 0.00 0.00 38 1009.7
20260504001054 84 96 0.0 3.5 0.00 0.00 0.00 40 1009.8
20260504000555 83 0 0.0 4.3 0.00 0.00 0.00 40 1009.6
20260504000057 83 182 0.9 4.3 0.00 0.00 0.00 40 1009.7
20260503235553 84 17 0.9 4.3 0.00 0.00 0.00 39 1009.7
20260503235057 84 113 0.0 2.6 0.00 0.00 0.00 40 1009.8
20260503234553 84 196 0.0 2.6 0.00 0.00 0.00 38 1009.9
20260503234054 83 0 0.0 2.6 0.00 0.00 0.00 36 1009.9
20260503233554 83 191 0.9 2.6 0.00 0.00 0.00 36 1010.0
20260503233057 83 0 0.0 2.6 0.00 0.00 0.00 36 1010.1
20260503232553 83 0 0.9 5.2 0.00 0.00 0.00 35 1010.0
20260503232056 83 0 0.0 5.2 0.00 0.00 0.00 38 1010.1
20260503231559 83 132 0.9 3.5 0.00 0.00 0.00 39 1010.2
20260503231054 83 96 0.0 2.6 0.00 0.00 0.00 38 1010.2
20260503230554 83 0 0.0 4.3 0.00 0.00 0.00 42 1010.3
20260503230059 83 0 0.9 4.3 0.00 0.00 0.00 39 1010.4
20260503225553 83 50 0.9 5.2 0.00 0.00 0.00 40 1010.4
20260503225053 83 196 0.0 6.1 0.00 0.00 0.00 40 1010.6
20260503224552 83 223 0.9 7.0 0.00 0.00 0.00 41 1010.7
20260503224054 83 177 1.7 7.0 0.00 0.00 0.00 41 1010.7
20260503223554 83 272 0.9 4.3 0.00 0.00 0.00 42 1010.8
20260503223055 83 219 0.9 4.3 0.00 0.00 0.00 44 1010.8
20260503222553 83 346 0.9 4.3 0.00 0.00 0.00 42 1011.0
20260503222053 82 184 0.9 4.3 0.00 0.00 0.00 42 1010.9
20260503221554 82 157 0.9 3.5 0.00 0.00 0.00 42 1011.0
20260503221054 82 117 0.0 3.5 0.00 0.00 0.00 43 1011.0
20260503220554 81 202 0.9 6.1 0.00 0.00 0.00 46 1011.1
20260503220104 81 5 0.9 6.1 0.00 0.00 0.00 44 1011.1
20260503215553 81 161 0.9 5.2 0.00 0.00 0.00 43 1011.1
20260503215054 82 236 0.9 5.2 0.00 0.00 0.00 42 1011.2
20260503214556 82 32 0.9 4.3 0.00 0.00 0.00 43 1011.2
20260503214053 82 0 0.0 5.2 0.00 0.00 0.00 46 1011.3
20260503213553 81 0 0.9 5.2 0.00 0.00 0.00 45 1011.4
20260503213108 82 5 0.9 5.2 0.00 0.00 0.00 44 1011.5
20260503212556 81 286 0.9 4.3 0.00 0.00 0.00 50 1011.5
20260503212053 81 5 0.9 5.2 0.00 0.00 0.00 47 1011.5
20260503211556 80 326 0.9 5.2 0.00 0.00 0.00 47 1011.5
20260503211054 80 153 0.9 3.5 0.00 0.00 0.00 47 1011.5
20260503210554 80 225 0.9 4.3 0.00 0.00 0.00 46 1011.6
20260503205554 80 19 0.9 7.0 0.00 0.00 0.00 48 1011.7
20260503205056 80 23 2.6 7.0 0.00 0.00 0.00 46 1011.6
20260503204555 80 37 1.7 5.2 0.00 0.00 0.00 45 1011.8
20260503204058 81 42 0.9 4.3 0.00 0.00 0.00 41 1011.8
20260503203553 81 265 0.9 3.5 0.00 0.00 0.00 39 1011.8
20260503203102 81 0 0.9 3.5 0.00 0.00 0.00 37 1011.9
20260503202554 80 312 0.9 4.3 0.00 0.00 0.00 37 1012.1
20260503202054 81 209 1.7 4.3 0.00 0.00 0.00 35 1012.1
20260503201554 81 23 0.9 5.2 0.00 0.00 0.00 37 1012.2
20260503201053 81 24 0.9 5.2 0.00 0.00 0.00 36 1012.2
20260503200557 81 49 0.9 5.2 0.00 0.00 0.00 37 1012.3
20260503200057 81 47 1.7 4.3 0.00 0.00 0.00 39 1012.3
20260503195553 80 343 0.9 4.3 0.00 0.00 0.00 39 1012.4
20260503195054 80 51 0.9 5.2 0.00 0.00 0.00 37 1012.4
20260503194554 80 56 0.9 6.1 0.00 0.00 0.00 38 1012.4
20260503194056 79 238 0.9 6.1 0.00 0.00 0.00 36 1012.4
20260503193554 79 0 0.9 3.5 0.00 0.00 0.00 38 1012.4
20260503193057 79 54 0.9 4.3 0.00 0.00 0.00 38 1012.5
20260503192554 78 202 0.9 5.2 0.00 0.00 0.00 40 1012.5
20260503192053 78 39 1.7 5.2 0.00 0.00 0.00 38 1012.5
20260503191605 78 26 1.7 5.2 0.00 0.00 0.00 40 1012.5
20260503191054 78 205 0.9 4.3 0.00 0.00 0.00 39 1012.5
20260503190554 78 219 0.9 7.0 0.00 0.00 0.00 41 1012.6
20260503190058 77 0 0.9 7.0 0.00 0.00 0.00 39 1012.6
20260503185553 77 53 2.6 7.0 0.00 0.00 0.00 37 1012.6
20260503185055 77 93 0.9 6.1 0.00 0.00 0.00 38 1012.6
20260503184609 77 13 1.7 4.3 0.00 0.00 0.00 39 1012.7
20260503184053 76 30 1.7 7.0 0.00 0.00 0.00 40 1012.7
20260503183553 76 5 1.7 7.0 0.00 0.00 0.00 42 1012.7
20260503183108 76 28 1.7 6.1 0.00 0.00 0.00 39 1012.8
20260503182556 76 24 0.9 7.0 0.00 0.00 0.00 39 1012.8
20260503182055 76 15 1.7 7.0 0.00 0.00 0.00 39 1012.9
20260503181609 76 19 1.7 3.5 0.00 0.00 0.00 39 1013.0
20260503181054 76 5 0.9 3.5 0.00 0.00 0.00 44 1013.1
20260503180554 76 5 0.0 4.3 0.00 0.00 0.00 43 1013.1
20260503180053 75 11 0.9 5.2 0.00 0.00 0.00 43 1013.2
20260503175553 75 125 1.7 5.2 0.00 0.00 0.00 43 1013.3
20260503175056 74 0 0.9 3.5 0.00 0.00 0.00 43 1013.5
20260503174554 74 0 0.9 3.5 0.00 0.00 0.00 44 1013.5
20260503174053 74 121 1.7 4.3 0.00 0.00 0.00 44 1013.5
20260503173553 73 0 0.9 4.3 0.00 0.00 0.00 46 1013.6
20260503173100 73 18 0.9 3.5 0.00 0.00 0.00 46 1013.6
20260503172553 72 140 0.9 5.2 0.00 0.00 0.00 47 1013.7
20260503172052 71 63 0.9 6.1 0.00 0.00 0.00 50 1013.7
20260503171553 71 134 2.6 6.1 0.00 0.00 0.00 49 1013.8
20260503171053 70 15 0.9 5.2 0.00 0.00 0.00 50 1013.8
20260503170553 70 19 1.7 5.2 0.00 0.00 0.00 50 1013.8